Tracking 25648 objects as of 17-May-2022
HD Live streaming from Space Station
objects crossing your sky now

COSMOS 2251 DEB

Track COSMOS 2251 DEB now!
10-day predictions


NORAD ID: 36058
Int'l Code: 1993-036AXV
Perigee: 697.9 km
Apogee: 775.0 km
Inclination: 74.0 °
Period: 99.4 minutes
Semi major axis: 7107 km
RCS: 0.0068 m2 (small)
Launch date: June 16, 1993
Source: Commonwealth of Independent States (former USSR) (CIS)
Launch site: PLESETSK MISSILE AND SPACE COMPLEX (PKMTR)

Note: This is SATELLITE DEBRIS
aabbcc
Your satellite tracking list
Your tracking list is empty




NASA's NSSDC Master Catalog

Two Line Element Set (TLE):
1 36058U 93036AXV 22137.28315254  .00001772  00000-0  46712-3 0  9998
2 36058  74.0262 338.5533 0054209  73.4626 287.2479 14.48875753471501
Source of the keplerian elements: AFSPC